Galax, VA

2:20 PM EDT on October 22, 2017 (GMT -0400)
Twin County

Weather History for KHLX - April, 2013

Change the Weather History Date:

Wednesday, April 24, 2013

  Actual Average (KBLF) Record (KBLF)
Temperature  
Mean Temperature 61 °F -  
Max Temperature 71 °F 63 °F 82 °F (2009)
Min Temperature 51 °F 45 °F 28 °F (2005)
Degree Days  
Heating Degree Days 4    
Growing Degree Days 11 (Base 50)    
Moisture  
Dew Point 53 °F    
Average Humidity 75    
Maximum Humidity 94    
Minimum Humidity 53    
Precipitation  
Precipitation 0.03 in - - ()
Sea Level Pressure  
Sea Level Pressure 30.08 in    
Wind  
Wind Speed 8 mph (South)    
Max Wind Speed 16 mph    
Max Gust Speed 26 mph    
Visibility 10 miles    
Events Rain    
Averages and records for this station are not official NWS values.
T = Trace of Precipitation, MM = Missing Value Source: NWS Daily Summary

Daily Weather History Graph

Daily Weather History Graph

Search for Another Location

Airport or City:

Trip Planner

Search our weather history database for the weather conditions in past years. The results will help you decide how hot, cold, wet, or windy it might be!

Date:

Astronomy

Apr. 24, 2013 Rise Set
Actual Time 6:37 AM EDT 8:05 PM EDT
Civil Twilight 6:10 AM EDT 8:33 PM EDT
Nautical Twilight 5:37 AM EDT 9:06 PM EDT
Astronomical Twilight 5:02 AM EDT 9:40 PM EDT
Moon 7:08 PM EDT (4/24) 5:38 AM EDT (4/24)
Length of Visible Light 14h 23m
Length of Day
13h 28m
Waxing Gibbous, 98% of the Moon is Illuminated
Apr 24
Waxing Gibbous
Apr 25
Full
May 2
Last Quarter
May 9
New
May 18
First Quarter

Hourly Weather History & Observations

Time (EDT) Temp. Dew Point Humidity Pressure Visibility Wind Dir Wind Speed Gust Speed Precip Events Conditions
12:15 AM 55.4 °F 50.0 °F 82% 30.15 in 10.0 mi SSE 6.9 mph - N/A   Clear
12:35 AM 55.4 °F 50.0 °F 82% 30.15 in 10.0 mi South 6.9 mph - N/A   Clear
12:55 AM 55.4 °F 50.0 °F 82% 30.15 in 10.0 mi South 6.9 mph - N/A   Clear
1:15 AM 53.6 °F 50.0 °F 88% 30.14 in 10.0 mi South 6.9 mph - N/A   Clear
1:35 AM 53.6 °F 50.0 °F 88% 30.14 in 10.0 mi South 8.1 mph - N/A   Clear
1:55 AM 53.6 °F 50.0 °F 88% 30.13 in 10.0 mi South 6.9 mph - N/A   Clear
2:15 AM 53.6 °F 50.0 °F 88% 30.13 in 10.0 mi South 9.2 mph - N/A   Clear
2:35 AM 53.6 °F 50.0 °F 88% 30.12 in 10.0 mi South 8.1 mph - N/A   Clear
2:55 AM 53.6 °F 50.0 °F 88% 30.12 in 10.0 mi South 9.2 mph - N/A   Clear
3:15 AM 53.6 °F 50.0 °F 88% 30.11 in 10.0 mi South 8.1 mph - N/A   Clear
3:35 AM 53.6 °F 50.0 °F 88% 30.11 in 10.0 mi SSW 6.9 mph - N/A   Clear
3:55 AM 53.6 °F 50.0 °F 88% 30.12 in 10.0 mi South 8.1 mph - N/A   Clear
4:15 AM 53.6 °F 50.0 °F 88% 30.12 in 10.0 mi South 5.8 mph - N/A   Clear
4:35 AM 53.6 °F 50.0 °F 88% 30.12 in 10.0 mi South 6.9 mph - N/A   Clear
4:55 AM 53.6 °F 48.2 °F 82% 30.12 in 10.0 mi South 5.8 mph - N/A   Clear
5:15 AM 53.6 °F 48.2 °F 82% 30.11 in 10.0 mi South 6.9 mph - N/A   Clear
5:35 AM 53.6 °F 50.0 °F 88% 30.11 in 10.0 mi South 5.8 mph - N/A   Clear
6:15 AM 51.8 °F 48.2 °F 88% 30.12 in 10.0 mi SSW 6.9 mph - N/A   Clear
6:35 AM 51.8 °F 48.2 °F 88% 30.11 in 10.0 mi South 3.5 mph - N/A   Clear
6:55 AM 51.8 °F 48.2 °F 88% 30.11 in 10.0 mi SSE 3.5 mph - N/A   Clear
7:15 AM 51.8 °F 48.2 °F 88% 30.11 in 10.0 mi SSE 4.6 mph - N/A   Clear
7:35 AM 51.8 °F 48.2 °F 88% 30.11 in 10.0 mi South 4.6 mph - N/A   Clear
7:55 AM 53.6 °F 50.0 °F 88% 30.11 in 10.0 mi South 5.8 mph - N/A   Clear
8:15 AM 55.4 °F 50.0 °F 82% 30.11 in 10.0 mi South 4.6 mph - N/A   Clear
8:35 AM 57.2 °F 51.8 °F 82% 30.11 in 10.0 mi South 4.6 mph - N/A   Clear
8:55 AM 59.0 °F 51.8 °F 77% 30.10 in 10.0 mi South 8.1 mph - N/A   Clear
9:15 AM 62.6 °F 51.8 °F 68% 30.10 in 10.0 mi South 9.2 mph - N/A   Clear
9:35 AM 62.6 °F 51.8 °F 68% 30.09 in 10.0 mi South 8.1 mph - N/A   Clear
9:55 AM 62.6 °F 53.6 °F 72% 30.09 in 10.0 mi South 4.6 mph - N/A   Clear
10:15 AM 64.4 °F 53.6 °F 68% 30.08 in 10.0 mi South 8.1 mph - N/A   Clear
10:35 AM 66.2 °F 51.8 °F 60% 30.08 in 10.0 mi SSW 11.5 mph - N/A   Clear
10:55 AM 66.2 °F 51.8 °F 60% 30.07 in 10.0 mi South 11.5 mph 16.1 mph N/A   Clear
11:15 AM 66.2 °F 50.0 °F 56% 30.07 in 10.0 mi South 13.8 mph 19.6 mph N/A   Clear
11:55 AM 66.2 °F 53.6 °F 64% 30.06 in 10.0 mi SSE 10.4 mph 19.6 mph N/A   Clear
12:15 PM 66.2 °F 53.6 °F 64% 30.07 in 10.0 mi South 15.0 mph 21.9 mph N/A   Clear
12:35 PM 66.2 °F 53.6 °F 64% 30.07 in 10.0 mi South 10.4 mph 18.4 mph N/A   Clear
12:55 PM 66.2 °F 53.6 °F 64% 30.07 in 10.0 mi South 12.7 mph 19.6 mph N/A   Clear
1:15 PM 68.0 °F 53.6 °F 60% 30.08 in 10.0 mi South 15.0 mph 20.7 mph N/A   Clear
1:35 PM 69.8 °F 53.6 °F 56% 30.06 in 10.0 mi SSW 11.5 mph 18.4 mph N/A   Clear
1:55 PM 69.8 °F 53.6 °F 56% 30.06 in 10.0 mi South 8.1 mph 18.4 mph N/A   Clear
2:15 PM 69.8 °F 55.4 °F 60% 30.06 in 10.0 mi South 9.2 mph - N/A   Clear
2:35 PM 71.6 °F 53.6 °F 53% 30.05 in 10.0 mi South 12.7 mph 18.4 mph N/A   Clear
2:55 PM 71.6 °F 53.6 °F 53% 30.05 in 10.0 mi SSE 11.5 mph 17.3 mph N/A   Clear
3:15 PM 71.6 °F 55.4 °F 57% 30.05 in 10.0 mi South 11.5 mph 20.7 mph N/A   Clear
3:35 PM 71.6 °F 55.4 °F 57% 30.03 in 10.0 mi South 9.2 mph 18.4 mph N/A   Clear
3:55 PM 69.8 °F 55.4 °F 60% 30.02 in 10.0 mi SSE 15.0 mph 21.9 mph N/A   Clear
4:15 PM 69.8 °F 55.4 °F 60% 30.02 in 10.0 mi South 9.2 mph 19.6 mph N/A   Clear
4:35 PM 69.8 °F 55.4 °F 60% 30.02 in 10.0 mi South 8.1 mph 19.6 mph N/A   Clear
4:55 PM 69.8 °F 57.2 °F 64% 30.01 in 10.0 mi SSW 13.8 mph 20.7 mph N/A   Clear
5:15 PM 69.8 °F 57.2 °F 64% 30.02 in 10.0 mi South 12.7 mph 18.4 mph N/A   Clear
5:35 PM 68.0 °F 57.2 °F 68% 30.05 in 7.0 mi WSW 11.5 mph 20.7 mph 0.03 in Rain Heavy Rain
5:55 PM 64.4 °F 57.2 °F 77% 30.04 in 10.0 mi SW 13.8 mph - N/A Rain Light Rain
6:15 PM 64.4 °F 57.2 °F 77% 30.03 in 10.0 mi SSW 9.2 mph 17.3 mph N/A   Overcast
6:35 PM 64.4 °F 55.4 °F 73% 30.03 in 10.0 mi SSW 15.0 mph 19.6 mph N/A   Mostly Cloudy
6:55 PM 64.4 °F 53.6 °F 68% 30.05 in 10.0 mi WSW 9.2 mph 13.8 mph N/A   Mostly Cloudy
7:15 PM 64.4 °F 55.4 °F 73% 30.05 in 10.0 mi SW 13.8 mph 17.3 mph N/A   Overcast
7:35 PM 64.4 °F 55.4 °F 73% 30.05 in 10.0 mi SSW 12.7 mph - N/A   Overcast
7:55 PM 64.4 °F 55.4 °F 73% 30.05 in 10.0 mi SSW 10.4 mph - N/A   Mostly Cloudy
8:15 PM 64.4 °F 57.2 °F 77% 30.05 in 10.0 mi SSW 10.4 mph - N/A   Mostly Cloudy
8:35 PM 64.4 °F 57.2 °F 77% 30.05 in 10.0 mi SSW 11.5 mph - N/A   Mostly Cloudy
8:55 PM 64.4 °F 57.2 °F 77% 30.06 in 10.0 mi SSW 10.4 mph 18.4 mph N/A   Mostly Cloudy
9:15 PM 62.6 °F 57.2 °F 82% 30.06 in 10.0 mi SW 9.2 mph - N/A   Mostly Cloudy
9:35 PM 64.4 °F 57.2 °F 77% 30.06 in 10.0 mi SSW 8.1 mph - N/A   Mostly Cloudy
9:55 PM 64.4 °F 57.2 °F 77% 30.07 in 10.0 mi West 3.5 mph - N/A   Overcast
11:15 PM 53.6 °F 51.8 °F 94% 30.13 in 10.0 mi NW 8.1 mph - N/A   Overcast
11:35 PM 51.8 °F 48.2 °F 88% 30.14 in 10.0 mi NW 16.1 mph 26.5 mph N/A   Overcast
11:55 PM 51.8 °F 46.4 °F 82% 30.15 in 10.0 mi NW 15.0 mph 23.0 mph N/A   Overcast